Location: Newark
(43.6583°N, 1.6617°E)
Time: 07:21:55
(UTC+00:00)

Transit 4A - Pass Details

Date: 31 August 2019
Orbit: 865 x 980 km, 66.8° (Epoch: 19 September)

Event Time Altitude Azimuth Distance (km) Brightness Sun altitude
Rises 17:28:39 0° 248° (WSW) 3,673 12.4 10.4°
Reaches altitude 10° 17:31:39 10° 261° (W) 2,729 12.6 9.9°
Maximum altitude 17:37:00 27° 318° (NW) 1,770 10.2 8.9°
Drops below altitude 10° 17:42:20 10° 15° (NNE) 2,714 10.3 7.9°
Sets 17:45:19 0° 27° (NNE) 3,649 10.8 7.4°
